Location: Panama City
(9.1012°N, 79.4029°W)
Time: 03:55:07
(UTC-05:00)

ISS - Pass Details

Date: 24 September 2016
Orbit: 401 x 408 km, 51.6° (Epoch: 26 June)

Event Time Altitude Azimuth Distance (km) Brightness Sun altitude
Rises 19:42:33 0° 246° (WSW) 2,303 1.0 -23.2°
Reaches altitude 10° 19:45:14 10° 270° (W) 1,442 0.1 -23.8°
Maximum altitude 19:47:14 15° 309° (NW) 1,163 -0.9 -24.3°
Enters shadow 19:48:41 12° 339° (NNW) 1,316 -1.0 -24.7°
